Tracking 25710 objects as of 6-Jul-2022
HD Live streaming from Space Station
objects crossing your sky now

LEMUR-2 VICTOR-ANDREW

Track LEMUR-2 VICTOR-ANDREW now!
10-day predictions
LEMUR-2 VICTOR-ANDREW is classified as:


NORAD ID: 44087
Int'l Code: 2019-018K
Perigee: 454.6 km
Apogee: 468.9 km
Inclination: 97.3 °
Period: 93.7 minutes
Semi major axis: 6832 km
RCS: Unknown
Launch date: April 1, 2019
Source: United States (US)
Launch site: SRIHARIKOTA (SRI)
aabbcc
Your satellite tracking list
Your tracking list is empty




NASA's NSSDC Master Catalog

Two Line Element Set (TLE):
1 44087U 19018K   22186.44317027  .00019429  00000-0  53507-3 0  9997
2 44087  97.3156 248.6956 0010479  56.9788 303.2462 15.37134405181575
Source of the keplerian elements: AFSPC